Retour au catalogue

SL-16 DEB

ActifLEO
NORAD 22331·DEBRIS·🇷🇺 Russia

Lancé Dec 25, 1992 depuis Baikonur Cosmodrome

Loading…

Prochains Passages (prochaines 24 heures)

TLE

FraisSource: Space-Track

Époque: Sep 14, 2026, 12:11 UTC

1 22331U 92093U   26257.50775789  .00000003  00000-0  30096-4 0  9999
2 22331  70.9207 286.5355 0075616 160.6827 272.4360 14.05009811727624

Suivez SL-16 DEB en temps réel avec AllMySat

Download on the App Store